ENDUROSAT ONE (43551 NORAD) Tracking and Keplerian Element Data

This shows tracking and keplerian element data for the satellite.

Feedback or suggestion? Click here.




ElementValue
Catalog43551
NameENDUROSAT ONE
Epoch Orbit5819
Epoch Day202.41942406
Epoch Year2019
RAAN175.3832
Inclination51.6365
Eccentricity0.0004709
Argument of Perigee276.291
Mean Anonmoly83.7548
Mean Motion15.63558849
Decay Rate8.41E-05
L11 43551U 98067NZ 19202.41942406 .00008410 00000-0 94497-4 0 9992
L22 43551 51.6365 175.3832 0004709 276.2910 83.7548 15.63558849 58194

Live tracking and technical data element details for ENDUROSAT ONE (NORAD 43551). ENDUROSAT ONE can be tracked NOW for your location showing map with azimuth and elevation plus other details from your city location.

Track the satellite on the map from your city or location and see movement details for azimuth, elevation, latitude, longitude, range, height, and movement on the map or in text.







IsCatalogInMostPopularTable: catalog: 43551, numindb: 207
Update: records affected: 1



GetName: 43551 ENDUROSAT ONE

Hit Count: updated at: Mon, 22 Jul 2019 16:46:59 GMT